星链-5565 (STARLINK-5565 )

导读 | 豆包AI

STARLINK-5565是美国太空探索技术公司SpaceX星链星座中的一颗卫星,于2023年3月3日发射升空,属于低轨卫星,主要为全球提供高速互联网服务,尤其服务偏远地区和网络基础设施薄弱区域,该卫星已在轨道运行三年,星链系统持续推进全球卫星互联网组网布局。

Basic Information
目录编号:
55745
目录名称:
STARLINK-5565
国际标识:
2023-028E
轨道中心:
EARTH
卫星名称:
星链-5565
卫星全名:
星链-5565 (STARLINK-5565 )
卫星状态:
已陨落 最后检测时间 2025-02-28
发射日期:
2023-03-03 UTC
国别 :
美国 (US)
星等 :
--
Orbit Information
数据来源 国际轨道数据
星历时间: 2025-02-28T23:22:38+0800
轨道信息已过期425天
半长轴: 6529.151km
偏心率: 0.0005743
轨道倾角: 69.969°
近地点辐角 290.370°
升交点赤经 90.184°
平近点角 187.465°
近地点: 147.266km
远地点: 154.766km
周期: 87.507分钟
每日圈数: 16.455754
Detailed Information
固有亮度:
5
最大亮度:
2.5
卫星平台:
Starlink v1.5
覆盖范围:
全球
运营商:
太空探索技术公司
运营商所在国:
美国
制造商(研发单位):
太空探索技术公司
制造商所在国:
美国
使用方式:
暂无
Satellite Introduction
星链(Starlink)计划是由太空探索技术公司(SpaceX)提出的一个巨型低轨卫星互联网星座项目,计划在2019年至2024年间在太空搭建由约1.2万颗卫星组成的“星链”网络,其中1584颗将部署在地球上空550千米处的近地轨道,并从2020年开始工作。该卫星仍在工作。